Time,TemperatureF,DewpointF,PressureIn,WindDirection,WindDirectionDegrees,WindSpeedMPH,WindSpeedGustMPH,Humidity,HourlyPrecipIn,Conditions,Clouds,dailyrainin,SoftwareType,DateUTC
2013-01-02 08:55:00,10.3,3.7,29.88,WSW,249,0.0,0.0,74,0.00,,,0.00,Wunderground v.1.15,2013-01-02 13:55:00,
2013-01-02 09:00:00,10.6,3.9,29.88,WSW,249,0.0,0.0,74,0.00,,,0.00,Wunderground v.1.15,2013-01-02 14:00:00,
2013-01-02 09:10:00,11.2,4.5,29.89,WSW,250,0.0,0.0,74,0.00,,,0.00,Wunderground v.1.15,2013-01-02 14:10:00,
2013-01-02 09:15:00,11.4,4.4,29.89,WSW,250,0.0,0.0,73,0.00,,,0.00,Wunderground v.1.15,2013-01-02 14:15:00,
2013-01-02 09:20:00,11.6,4.6,29.89,WSW,250,0.0,0.0,73,0.00,,,0.00,Wunderground v.1.15,2013-01-02 14:20:00,
2013-01-02 09:25:00,11.8,4.8,29.89,WSW,250,0.0,0.0,73,0.00,,,0.00,Wunderground v.1.15,2013-01-02 14:25:00,
2013-01-02 09:30:00,12.0,5.3,29.90,WSW,249,0.0,0.0,74,0.00,,,0.00,Wunderground v.1.15,2013-01-02 14:30:00,
2013-01-02 09:35:00,12.2,5.5,29.90,WSW,250,0.0,0.0,74,0.00,,,0.00,Wunderground v.1.15,2013-01-02 14:35:00,
2013-01-02 09:45:00,12.6,5.9,29.91,WSW,244,0.0,0.0,74,0.00,,,0.00,Wunderground v.1.15,2013-01-02 14:45:00,
2013-01-02 09:50:00,12.9,6.5,29.91,WSW,244,0.0,0.0,75,0.00,,,0.00,Wunderground v.1.15,2013-01-02 14:50:00,
2013-01-02 09:55:00,13.3,6.9,29.91,WSW,246,0.0,0.0,75,0.00,,,0.00,Wunderground v.1.15,2013-01-02 14:55:00,
2013-01-02 10:05:00,14.1,7.6,29.91,WSW,243,0.0,1.0,75,0.00,,,0.00,Wunderground v.1.15,2013-01-02 15:05:00,
2013-01-02 10:15:00,15.0,8.5,29.91,SW,236,1.0,1.0,75,0.00,,,0.00,Wunderground v.1.15,2013-01-02 15:15:00,
2013-01-02 10:20:00,15.4,8.6,29.91,West,277,1.0,1.0,74,0.00,,,0.00,Wunderground v.1.15,2013-01-02 15:20:00,
2013-01-02 10:30:00,16.4,8.9,29.90,WSW,249,1.0,1.0,72,0.00,,,0.00,Wunderground v.1.15,2013-01-02 15:30:00,
2013-01-02 10:35:00,16.4,8.9,29.90,WSW,258,0.0,1.0,72,0.00,,,0.00,Wunderground v.1.15,2013-01-02 15:35:00,
2013-01-02 10:40:00,16.7,8.9,29.90,West,261,0.0,0.0,71,0.00,,,0.00,Wunderground v.1.15,2013-01-02 15:40:00,
2013-01-02 10:45:00,16.9,9.1,29.90,WSW,240,0.0,0.0,71,0.00,,,0.00,Wunderground v.1.15,2013-01-02 15:45:00,
2013-01-02 10:55:00,17.4,9.3,29.90,West,279,1.0,1.0,70,0.00,,,0.00,Wunderground v.1.15,2013-01-02 15:55:00,
2013-01-02 11:05:00,18.6,10.4,29.89,WSW,257,1.0,4.0,70,0.00,,,0.00,Wunderground v.1.15,2013-01-02 16:05:00,
2013-01-02 11:10:00,19.2,10.7,29.89,SW,236,2.0,7.0,69,0.00,,,0.00,Wunderground v.1.15,2013-01-02 16:10:00,
2013-01-02 11:15:00,19.8,10.9,29.89,WSW,250,3.0,7.0,68,0.00,,,0.00,Wunderground v.1.15,2013-01-02 16:15:00,
2013-01-02 11:25:00,19.7,10.2,29.90,West,259,3.0,6.0,66,0.00,,,0.00,Wunderground v.1.15,2013-01-02 16:25:00,
2013-01-02 11:35:00,19.1,9.6,29.89,WSW,257,2.0,5.0,66,0.00,,,0.00,Wunderground v.1.15,2013-01-02 16:35:00,
2013-01-02 11:40:00,18.9,9.1,29.89,WSW,241,2.0,2.0,65,0.00,,,0.00,Wunderground v.1.15,2013-01-02 16:40:00,
2013-01-02 11:45:00,18.7,8.9,29.89,WSW,242,3.0,3.0,65,0.00,,,0.00,Wunderground v.1.15,2013-01-02 16:45:00,
2013-01-02 11:55:00,18.9,9.1,29.89,WSW,238,3.0,4.0,65,0.00,,,0.00,Wunderground v.1.15,2013-01-02 16:55:00,
2013-01-02 12:00:00,18.9,9.1,29.89,SW,236,3.0,3.0,65,0.00,,,0.00,Wunderground v.1.15,2013-01-02 17:00:00,
2013-01-02 12:05:00,18.9,8.7,29.89,WSW,252,2.0,3.0,64,0.00,,,0.00,Wunderground v.1.15,2013-01-02 17:05:00,
2013-01-02 12:15:00,19.0,8.1,29.89,SSW,201,2.0,3.0,62,0.00,,,0.00,Wunderground v.1.15,2013-01-02 17:15:00,
2013-01-02 12:20:00,19.0,7.7,29.89,West,280,2.0,2.0,61,0.00,,,0.00,Wunderground v.1.15,2013-01-02 17:20:00,
2013-01-02 12:25:00,19.0,7.7,29.90,NNE,18,2.0,3.0,61,0.00,,,0.00,Wunderground v.1.15,2013-01-02 17:25:00,
2013-01-02 12:35:00,18.9,7.7,29.91,SW,223,2.0,4.0,61,0.00,,,0.00,Wunderground v.1.15,2013-01-02 17:35:00,
2013-01-02 12:45:00,19.1,7.5,29.90,West,277,2.0,5.0,60,0.00,,,0.00,Wunderground v.1.15,2013-01-02 17:45:00,
2013-01-02 12:50:00,19.8,8.1,29.90,WSW,252,2.0,2.0,60,0.00,,,0.00,Wunderground v.1.15,2013-01-02 17:50:00,
2013-01-02 13:00:00,20.2,7.8,29.90,WNW,285,3.0,4.0,58,0.00,,,0.00,Wunderground v.1.15,2013-01-02 18:00:00,
2013-01-02 13:05:00,20.0,7.6,29.90,SSW,207,3.0,4.0,58,0.00,,,0.00,Wunderground v.1.15,2013-01-02 18:05:00,
2013-01-02 13:10:00,20.2,8.1,29.90,NW,322,3.0,3.0,59,0.00,,,0.00,Wunderground v.1.15,2013-01-02 18:10:00,
2013-01-02 13:15:00,20.0,7.6,29.90,NW,323,2.0,3.0,58,0.00,,,0.00,Wunderground v.1.15,2013-01-02 18:15:00,
2013-01-02 13:25:00,19.3,6.9,29.90,NNW,336,3.0,16.0,58,0.00,,,0.00,Wunderground v.1.15,2013-01-02 18:25:00,
2013-01-02 13:35:00,18.7,6.4,29.91,West,266,5.0,5.0,58,0.00,,,0.00,Wunderground v.1.15,2013-01-02 18:35:00,
2013-01-02 13:40:00,18.7,6.4,29.91,SSW,211,4.0,4.0,58,0.00,,,0.00,Wunderground v.1.15,2013-01-02 18:40:00,
2013-01-02 13:45:00,18.8,6.4,29.91,SSW,196,4.0,4.0,58,0.00,,,0.00,Wunderground v.1.15,2013-01-02 18:45:00,
2013-01-02 13:55:00,19.0,5.9,29.92,SW,215,3.0,5.0,56,0.00,,,0.00,Wunderground v.1.15,2013-01-02 18:55:00,
2013-01-02 14:05:00,18.5,5.4,29.93,SW,224,4.0,4.0,56,0.00,,,0.00,Wunderground v.1.15,2013-01-02 19:05:00,
2013-01-02 14:10:00,18.6,5.5,29.93,WSW,246,3.0,4.0,56,0.00,,,0.00,Wunderground v.1.15,2013-01-02 19:10:00,
2013-01-02 14:20:00,19.7,5.7,29.92,WSW,256,3.0,4.0,54,0.00,,,0.00,Wunderground v.1.15,2013-01-02 19:20:00,
2013-01-02 14:25:00,19.9,5.5,29.92,SSW,210,2.0,13.0,53,0.00,,,0.00,Wunderground v.1.15,2013-01-02 19:25:00,
2013-01-02 14:30:00,19.7,5.3,29.93,WSW,238,4.0,4.0,53,0.00,,,0.00,Wunderground v.1.15,2013-01-02 19:30:00,
2013-01-02 14:35:00,19.7,4.9,29.93,South,191,4.0,4.0,52,0.00,,,0.00,Wunderground v.1.15,2013-01-02 19:35:00,
2013-01-02 14:45:00,19.3,4.1,29.94,WNW,283,4.0,10.0,51,0.00,,,0.00,Wunderground v.1.15,2013-01-02 19:45:00,
2013-01-02 14:50:00,19.1,3.9,29.94,WNW,288,4.0,4.0,51,0.00,,,0.00,Wunderground v.1.15,2013-01-02 19:50:00,
2013-01-02 14:55:00,19.0,3.8,29.94,SW,232,3.0,4.0,51,0.00,,,0.00,Wunderground v.1.15,2013-01-02 19:55:00,
2013-01-02 15:05:00,18.4,3.3,29.95,NW,305,3.0,3.0,51,0.00,,,0.00,Wunderground v.1.15,2013-01-02 20:05:00,
2013-01-02 15:15:00,18.0,2.9,29.96,WSW,246,3.0,3.0,51,0.00,,,0.00,Wunderground v.1.15,2013-01-02 20:15:00,
2013-01-02 15:20:00,17.9,3.2,29.96,WSW,242,3.0,3.0,52,0.00,,,0.00,Wunderground v.1.15,2013-01-02 20:20:00,
2013-01-02 15:25:00,17.5,2.8,29.97,West,272,2.0,3.0,52,0.00,,,0.00,Wunderground v.1.15,2013-01-02 20:25:00,
2013-01-02 15:35:00,16.8,2.6,29.97,SW,223,2.0,3.0,53,0.00,,,0.00,Wunderground v.1.15,2013-01-02 20:35:00,
2013-01-02 15:40:00,16.6,2.4,29.98,NNE,28,2.0,2.0,53,0.00,,,0.00,Wunderground v.1.15,2013-01-02 20:40:00,
2013-01-02 15:45:00,16.3,2.5,29.98,WNW,286,1.0,2.0,54,0.00,,,0.00,Wunderground v.1.15,2013-01-02 20:45:00,
2013-01-02 15:55:00,16.0,1.9,29.99,North,360,1.0,6.0,53,0.00,,,0.00,Wunderground v.1.15,2013-01-02 20:55:00,
2013-01-02 16:05:00,15.3,1.6,30.00,NW,318,1.0,1.0,54,0.00,,,0.00,Wunderground v.1.15,2013-01-02 21:05:00,
2013-01-02 16:10:00,15.0,1.7,30.00,NW,308,1.0,1.0,55,0.00,,,0.00,Wunderground v.1.15,2013-01-02 21:10:00,
2013-01-02 16:15:00,14.8,1.5,30.00,SW,236,0.0,1.0,55,0.00,,,0.00,Wunderground v.1.15,2013-01-02 21:15:00,
2013-01-02 16:25:00,14.1,1.3,30.01,SW,227,0.0,2.0,56,0.00,,,0.00,Wunderground v.1.15,2013-01-02 21:25:00,
2013-01-02 16:30:00,13.7,0.9,30.01,SW,218,1.0,3.0,56,0.00,,,0.00,Wunderground v.1.15,2013-01-02 21:30:00,
2013-01-02 16:35:00,13.4,0.6,30.01,NNW,337,1.0,3.0,56,0.00,,,0.00,Wunderground v.1.15,2013-01-02 21:35:00,
2013-01-02 16:45:00,13.0,-0.2,30.01,WSW,252,1.0,1.0,55,0.00,,,0.00,Wunderground v.1.15,2013-01-02 21:45:00,
2013-01-02 16:55:00,12.6,-0.2,30.01,North,11,1.0,1.0,56,0.00,,,0.00,Wunderground v.1.15,2013-01-02 21:55:00,
2013-01-02 17:00:00,12.3,-0.4,30.02,West,273,0.0,3.0,56,0.00,,,0.00,Wunderground v.1.15,2013-01-02 22:00:00,
2013-01-02 17:05:00,12.1,-0.6,30.02,SW,236,0.0,3.0,56,0.00,,,0.00,Wunderground v.1.15,2013-01-02 22:05:00,
2013-01-02 17:15:00,11.6,-1.1,30.03,East,91,1.0,1.0,56,0.00,,,0.00,Wunderground v.1.15,2013-01-02 22:15:00,
2013-01-02 17:20:00,11.3,-1.4,30.03,SSW,208,1.0,2.0,56,0.00,,,0.00,Wunderground v.1.15,2013-01-02 22:20:00,
2013-01-02 17:30:00,10.8,-1.8,30.04,NNE,31,1.0,2.0,56,0.00,,,0.00,Wunderground v.1.15,2013-01-02 22:30:00,
2013-01-02 17:35:00,10.6,-2.0,30.04,SSE,165,1.0,9.0,56,0.00,,,0.00,Wunderground v.1.15,2013-01-02 22:35:00,
2013-01-02 17:45:00,10.3,-2.3,30.04,NNW,338,1.0,1.0,56,0.00,,,0.00,Wunderground v.1.15,2013-01-02 22:45:00,
2013-01-02 17:50:00,10.0,-2.6,30.04,North,11,1.0,1.0,56,0.00,,,0.00,Wunderground v.1.15,2013-01-02 22:50:00,
2013-01-02 17:55:00,9.9,-1.9,30.04,SSW,197,1.0,1.0,58,0.00,,,0.00,Wunderground v.1.15,2013-01-02 22:55:00,
2013-01-02 18:05:00,9.2,-1.9,30.05,NNW,333,1.0,3.0,60,0.00,,,0.00,Wunderground v.1.15,2013-01-02 23:05:00,
2013-01-02 18:10:00,8.9,-1.8,30.05,SW,227,0.0,0.0,61,0.00,,,0.00,Wunderground v.1.15,2013-01-02 23:10:00,
2013-01-02 18:15:00,8.6,-2.1,30.06,WSW,245,0.0,0.0,61,0.00,,,0.00,Wunderground v.1.15,2013-01-02 23:15:00,
2013-01-02 18:25:00,8.1,-2.2,30.06,WNW,298,1.0,1.0,62,0.00,,,0.00,Wunderground v.1.15,2013-01-02 23:25:00,
2013-01-02 18:35:00,7.7,-2.6,30.07,NNE,20,1.0,3.0,62,0.00,,,0.00,Wunderground v.1.15,2013-01-02 23:35:00,
2013-01-02 18:40:00,7.5,-2.8,30.08,NNE,23,0.0,0.0,62,0.00,,,0.00,Wunderground v.1.15,2013-01-02 23:40:00,
2013-01-02 18:45:00,7.1,-2.9,30.08,SSW,207,0.0,4.0,63,0.00,,,0.00,Wunderground v.1.15,2013-01-02 23:45:00,
2013-01-02 18:55:00,6.4,-3.5,30.08,West,279,2.0,6.0,63,0.00,,,0.00,Wunderground v.1.15,2013-01-02 23:55:00,
2013-01-02 19:00:00,6.0,-3.6,30.08,North,10,2.0,2.0,64,0.00,,,0.00,Wunderground v.1.15,2013-01-03 00:00:00,
2013-01-02 19:05:00,5.5,-4.1,30.08,WNW,289,1.0,2.0,64,0.00,,,0.00,Wunderground v.1.15,2013-01-03 00:05:00,
2013-01-02 19:15:00,4.7,-4.5,30.08,NW,305,1.0,1.0,65,0.00,,,0.00,Wunderground v.1.15,2013-01-03 00:15:00,
2013-01-02 19:25:00,4.0,-5.2,30.08,SW,218,2.0,2.0,65,0.00,,,0.00,Wunderground v.1.15,2013-01-03 00:25:00,
2013-01-02 19:30:00,3.5,-5.6,30.06,WSW,245,3.0,3.0,65,0.00,,,0.00,Wunderground v.1.15,2013-01-03 00:30:00,
2013-01-02 19:35:00,3.3,-5.8,30.07,WNW,284,5.0,5.0,65,0.00,,,0.00,Wunderground v.1.15,2013-01-03 00:35:00,
2013-01-02 19:45:00,2.8,-5.7,30.06,WSW,255,4.0,6.0,67,0.00,,,0.00,Wunderground v.1.15,2013-01-03 00:45:00,
2013-01-02 19:55:00,2.4,-6.4,30.08,North,355,4.0,4.0,66,0.00,,,0.00,Wunderground v.1.15,2013-01-03 00:55:00,
2013-01-02 20:00:00,2.2,-6.9,30.08,North,360,2.0,2.0,65,0.00,,,0.00,Wunderground v.1.15,2013-01-03 01:00:00,
2013-01-02 20:05:00,2.0,-7.1,30.09,NNE,30,2.0,2.0,65,0.00,,,0.00,Wunderground v.1.15,2013-01-03 01:05:00,
2013-01-02 20:15:00,1.7,-7.7,30.09,SW,236,3.0,3.0,64,0.00,,,0.00,Wunderground v.1.15,2013-01-03 01:15:00,
2013-01-02 20:20:00,1.5,-7.6,30.08,WNW,284,2.0,2.0,65,0.00,,,0.00,Wunderground v.1.15,2013-01-03 01:20:00,
2013-01-02 20:25:00,1.4,-7.6,30.09,NNW,336,2.0,3.0,65,0.00,,,0.00,Wunderground v.1.15,2013-01-03 01:25:00,
2013-01-02 20:35:00,1.0,-8.0,30.09,WSW,244,1.0,3.0,65,0.00,,,0.00,Wunderground v.1.15,2013-01-03 01:35:00,
2013-01-02 20:45:00,0.6,-8.1,30.08,West,260,2.0,6.0,66,0.00,,,0.00,Wunderground v.1.15,2013-01-03 01:45:00,
2013-01-02 20:50:00,0.5,-8.2,30.08,SW,229,2.0,7.0,66,0.00,,,0.00,Wunderground v.1.15,2013-01-03 01:50:00,
2013-01-02 20:55:00,0.4,-8.3,30.09,South,183,1.0,7.0,66,0.00,,,0.00,Wunderground v.1.15,2013-01-03 01:55:00,
2013-01-02 21:05:00,0.3,-8.4,30.10,NW,305,1.0,5.0,66,0.00,,,0.00,Wunderground v.1.15,2013-01-03 02:05:00,
2013-01-02 21:15:00,0.1,-8.9,30.11,South,176,1.0,5.0,65,0.00,,,0.00,Wunderground v.1.15,2013-01-03 02:15:00,
2013-01-02 21:20:00,0.0,-9.0,30.10,SW,233,1.0,5.0,65,0.00,,,0.00,Wunderground v.1.15,2013-01-03 02:20:00,
2013-01-02 21:25:00,-0.1,-8.8,30.11,South,176,1.0,5.0,66,0.00,,,0.00,Wunderground v.1.15,2013-01-03 02:25:00,
2013-01-02 21:35:00,-0.4,-9.1,30.11,SW,223,1.0,1.0,66,0.00,,,0.00,Wunderground v.1.15,2013-01-03 02:35:00,
2013-01-02 21:40:00,-0.6,-9.3,30.11,SW,229,0.0,3.0,66,0.00,,,0.00,Wunderground v.1.15,2013-01-03 02:40:00,
2013-01-02 21:45:00,-0.7,-9.0,30.11,NE,49,0.0,3.0,67,0.00,,,0.00,Wunderground v.1.15,2013-01-03 02:45:00,
2013-01-02 21:55:00,-1.0,-9.3,30.11,West,273,1.0,1.0,67,0.00,,,0.00,Wunderground v.1.15,2013-01-03 02:55:00,
2013-01-02 22:00:00,-1.1,-9.4,30.10,SSW,212,1.0,1.0,67,0.00,,,0.00,Wunderground v.1.15,2013-01-03 03:00:00,
2013-01-02 22:05:00,-1.2,-9.2,30.10,West,269,2.0,2.0,68,0.00,,,0.00,Wunderground v.1.15,2013-01-03 03:05:00,
2013-01-02 22:15:00,-1.3,-7.0,30.11,West,266,1.0,3.0,76,0.00,,,0.00,Wunderground v.1.15,2013-01-03 03:15:00,
2013-01-02 22:25:00,-1.5,-9.5,30.10,West,267,3.0,3.0,68,0.00,,,0.00,Wunderground v.1.15,2013-01-03 03:25:00,
2013-01-02 22:45:00,-1.4,-9.7,30.10,West,276,2.0,2.0,67,0.00,,,0.00,Wunderground v.1.15,2013-01-03 03:45:00,
2013-01-02 22:55:00,-1.4,-10.0,30.10,WSW,257,3.0,3.0,66,0.00,,,0.00,Wunderground v.1.15,2013-01-03 03:55:00,
2013-01-02 23:05:00,-1.1,-9.7,30.09,ENE,73,2.0,3.0,66,0.00,,,0.00,Wunderground v.1.15,2013-01-03 04:05:00,
2013-01-02 23:10:00,-1.2,-10.1,30.09,WNW,288,2.0,2.0,65,0.00,,,0.00,Wunderground v.1.15,2013-01-03 04:10:00,
2013-01-02 23:15:00,-1.2,-9.8,30.08,SW,232,2.0,2.0,66,0.00,,,0.00,Wunderground v.1.15,2013-01-03 04:15:00,
2013-01-02 23:25:00,-1.2,-9.8,30.09,WSW,253,3.0,3.0,66,0.00,,,0.00,Wunderground v.1.15,2013-01-03 04:25:00,
2013-01-02 23:30:00,-1.1,-10.0,30.09,North,5,2.0,2.0,65,0.00,,,0.00,Wunderground v.1.15,2013-01-03 04:30:00,
2013-01-02 23:35:00,-1.1,-10.0,30.10,SSW,201,1.0,3.0,65,0.00,,,0.00,Wunderground v.1.15,2013-01-03 04:35:00,
2013-01-02 23:45:00,-1.2,-10.1,30.09,West,277,3.0,3.0,65,0.00,,,0.00,Wunderground v.1.15,2013-01-03 04:45:00,
2013-01-02 23:55:00,-1.2,-10.1,30.09,West,266,3.0,4.0,65,0.00,,,0.00,Wunderground v.1.15,2013-01-03 04:55:00,